EW5545 Weather Reports


time (UTC)temp
F
wind
direction
speed
knots
gust
knots
rain 1hr
in
rain 24hr
in
rain mn
in
humidity
%
barometer
mb
20260507214015 59 170 3.5 6.1 0.00 0.29 0.29 60 1012.8
20260507213514 59 176 3.5 7.8 0.00 0.29 0.29 60 1012.8
20260507213008 59 172 3.5 7.8 0.00 0.29 0.29 61 1012.9
20260507212506 58 182 2.6 7.0 0.00 0.29 0.29 62 1012.9
20260507211006 57 179 0.9 2.6 0.00 0.29 0.29 66 1012.9
20260507210507 57 169 0.9 1.7 0.00 0.29 0.29 67 1013.0
20260507205507 57 67 0.9 2.6 0.00 0.29 0.29 69 1013.0
20260507205005 57 29 0.0 2.6 0.00 0.29 0.29 71 1013.0
20260507204506 56 175 0.0 0.9 0.00 0.29 0.29 72 1013.1
20260507204011 56 140 0.0 2.6 0.00 0.29 0.29 74 1013.1
20260507203507 56 169 0.9 2.6 0.00 0.29 0.29 76 1013.2
20260507202007 56 181 0.0 1.7 0.00 0.29 0.29 76 1013.5
20260507201007 56 176 0.9 2.6 0.00 0.29 0.29 76 1013.7
20260507200506 56 176 1.7 2.6 0.00 0.29 0.29 75 1013.7
20260507200007 57 181 1.7 2.6 0.00 0.29 0.29 75 1013.7
20260507195507 57 184 1.7 2.6 0.00 0.29 0.29 74 1013.7
20260507195007 57 184 0.9 2.6 0.00 0.29 0.29 73 1013.7
20260507194506 57 178 0.9 2.6 0.00 0.29 0.29 73 1013.7
20260507193005 58 177 1.7 2.6 0.00 0.29 0.29 72 1013.5
20260507192505 58 181 1.7 4.3 0.00 0.29 0.29 71 1013.4
20260507192008 58 168 2.6 5.2 0.00 0.29 0.29 71 1013.3
20260507191506 58 174 2.6 7.0 0.00 0.29 0.29 71 1013.2
20260507191007 58 174 4.3 6.1 0.00 0.29 0.29 71 1013.0
20260507190008 59 178 2.6 7.0 0.00 0.29 0.29 70 1012.9
20260507185507 59 162 2.6 7.0 0.00 0.29 0.29 70 1012.8
20260507185008 59 179 1.7 5.2 0.00 0.29 0.29 69 1012.8
20260507184506 59 163 2.6 6.1 0.00 0.29 0.29 69 1012.9
20260507184009 59 168 1.7 5.2 0.00 0.29 0.29 69 1012.8
20260507183008 59 182 1.7 5.2 0.00 0.29 0.29 67 1012.9
20260507182506 59 176 4.3 7.0 0.00 0.29 0.29 67 1012.9
20260507182006 59 185 3.5 7.8 0.00 0.29 0.29 66 1012.8
20260507181507 59 170 2.6 6.1 0.00 0.29 0.29 65 1012.8
20260507181005 60 171 3.5 8.7 0.00 0.29 0.29 65 1012.8
20260507180507 60 162 2.6 7.0 0.00 0.29 0.29 64 1012.8
20260507180010 60 172 2.6 5.2 0.00 0.29 0.29 63 1012.8
20260507175507 60 167 2.6 4.3 0.00 0.29 0.29 61 1012.8
20260507175008 60 173 1.7 5.2 0.00 0.29 0.29 60 1012.8
20260507174507 61 176 1.7 5.2 0.00 0.29 0.29 59 1012.9
20260507174007 61 172 0.9 2.6 0.00 0.29 0.29 59 1012.8
20260507173011 62 176 1.7 2.6 0.00 0.29 0.29 57 1012.8
20260507172007 62 170 1.7 2.6 0.00 0.29 0.29 54 1012.9
20260507171506 62 186 2.6 6.1 0.00 0.29 0.29 53 1013.0
20260507171005 63 186 3.5 5.2 0.00 0.29 0.29 52 1013.1
20260507170510 63 196 0.9 5.2 0.00 0.29 0.29 51 1013.0
20260507170005 63 183 2.6 7.8 0.00 0.29 0.29 50 1012.8
20260507165507 64 166 3.5 7.0 0.00 0.29 0.29 49 1012.8
20260507165007 64 191 2.6 8.7 0.00 0.29 0.29 47 1012.9
20260507164505 64 164 2.6 7.0 0.00 0.29 0.29 46 1013.0
20260507164007 65 174 3.5 6.1 0.00 0.29 0.29 45 1012.9
20260507163507 65 176 2.6 6.1 0.00 0.29 0.29 44 1013.0
20260507163011 65 171 2.6 8.7 0.00 0.29 0.29 43 1013.0
20260507162505 65 197 4.3 7.8 0.00 0.29 0.29 42 1013.1
20260507162006 65 178 4.3 8.7 0.00 0.29 0.29 41 1013.0
20260507161505 65 161 5.2 10.4 0.00 0.29 0.29 43 1012.8
20260507161008 65 184 6.1 10.4 0.00 0.29 0.29 42 1012.8
20260507160506 66 205 5.2 12.2 0.00 0.29 0.29 42 1012.7
20260507155505 66 196 7.8 14.8 0.00 0.29 0.29 41 1012.8
20260507155007 67 198 6.1 12.2 0.00 0.29 0.29 41 1012.8
20260507154006 67 199 3.5 13.0 0.00 0.29 0.29 44 1012.6
20260507153511 67 202 6.1 14.8 0.00 0.29 0.29 44 1012.6
20260507152508 67 204 7.0 13.0 0.00 0.29 0.29 44 1012.5
20260507152005 67 180 8.7 13.9 0.00 0.29 0.29 41 1012.7
20260507151507 67 181 7.0 13.9 0.00 0.29 0.29 45 1012.6
20260507151007 67 190 5.2 13.9 0.00 0.29 0.29 46 1012.7
20260507150507 67 188 8.7 13.9 0.00 0.29 0.29 44 1012.8
20260507145505 68 192 7.8 17.4 0.00 0.29 0.29 43 1012.9
20260507145011 68 168 7.0 14.8 0.00 0.29 0.29 47 1012.9
20260507144507 68 201 10.4 19.1 0.00 0.29 0.29 45 1013.0
20260507144007 68 207 7.8 13.0 0.00 0.29 0.29 45 1012.9
20260507143507 68 207 9.6 15.6 0.00 0.29 0.29 44 1012.9
20260507143007 68 197 8.7 17.4 0.00 0.29 0.29 45 1012.9
20260507142506 68 200 11.3 18.2 0.00 0.29 0.29 43 1012.9
20260507142007 68 202 8.7 15.6 0.00 0.29 0.29 44 1012.9
20260507141505 69 200 7.0 13.9 0.00 0.29 0.29 46 1012.9
20260507141007 69 183 7.0 13.0 0.00 0.29 0.29 46 1012.9
20260507140505 68 190 8.7 14.8 0.00 0.29 0.29 46 1012.8
20260507140006 68 200 6.1 14.8 0.00 0.29 0.29 51 1012.7
20260507135507 67 195 7.8 14.8 0.00 0.29 0.29 48 1012.8
20260507134506 66 181 9.6 15.6 0.00 0.29 0.29 56 1012.9
20260507134007 65 218 8.7 14.8 0.00 0.29 0.29 57 1012.9
20260507133506 65 204 8.7 14.8 0.00 0.29 0.29 60 1013.0
20260507133007 65 192 10.4 14.8 0.00 0.29 0.29 59 1013.2
20260507132505 65 176 7.8 13.9 0.00 0.29 0.29 62 1013.2
20260507132006 65 221 10.4 17.4 0.00 0.29 0.29 57 1013.3
20260507130507 66 209 7.0 17.4 0.00 0.29 0.29 61 1013.2
20260507125507 67 218 7.8 15.6 0.00 0.29 0.29 55 1013.4
20260507125007 67 194 7.0 12.2 0.00 0.29 0.29 58 1013.3
20260507124507 66 189 7.8 17.4 0.00 0.29 0.29 59 1013.5
20260507124007 66 201 7.8 15.6 0.00 0.29 0.29 60 1013.6
20260507123516 66 202 7.8 18.2 0.00 0.29 0.29 59 1013.6
20260507123007 66 191 8.7 13.9 0.00 0.29 0.29 55 1013.6
20260507122506 66 210 7.8 13.9 0.00 0.29 0.29 60 1013.4
20260507122010 66 184 7.0 17.4 0.00 0.29 0.29 65 1013.4
20260507121507 66 179 8.7 17.4 0.00 0.29 0.29 67 1013.4
20260507121011 66 207 10.4 15.6 0.00 0.29 0.29 67 1013.4
20260507120510 67 194 9.6 17.4 0.00 0.29 0.29 66 1013.5
20260507120007 67 203 9.6 18.2 0.00 0.29 0.29 67 1013.7
20260507115510 67 195 11.3 17.4 0.00 0.29 0.29 65 1013.8
20260507115005 67 186 7.8 17.4 0.00 0.29 0.29 69 1013.7
20260507114511 66 193 8.7 17.4 0.00 0.29 0.29 71 1013.6
20260507114007 66 204 11.3 20.9 0.00 0.29 0.29 69 1013.7
20260507113507 65 205 12.2 20.9 0.00 0.29 0.29 67 1013.7
20260507113006 66 189 6.1 17.4 0.00 0.29 0.29 69 1013.5
20260507112505 66 203 10.4 19.1 0.00 0.29 0.29 70 1013.7
20260507112008 65 204 6.1 17.4 0.00 0.29 0.29 72 1013.7
20260507111506 65 218 10.4 19.1 0.00 0.29 0.29 70 1013.7
20260507111006 67 205 12.2 20.0 0.00 0.29 0.29 67 1013.9
20260507110505 67 205 8.7 17.4 0.00 0.29 0.29 70 1013.7
20260507110006 66 188 7.8 20.0 0.00 0.29 0.29 72 1013.8
20260507105505 65 200 13.9 20.0 0.00 0.29 0.29 72 1013.8
20260507105009 66 184 8.7 18.2 0.00 0.29 0.29 73 1013.9
20260507104506 65 202 8.7 20.0 0.00 0.29 0.29 73 1013.8
20260507104007 65 200 11.3 21.7 0.00 0.29 0.29 74 1013.9
20260507103506 65 199 9.6 21.7 0.00 0.29 0.29 75 1014.0
20260507103007 65 188 10.4 17.4 0.00 0.29 0.29 74 1014.2
20260507102506 65 199 10.4 19.1 0.00 0.29 0.29 75 1014.1
20260507102007 65 185 8.7 20.0 0.00 0.29 0.29 75 1014.0
20260507101507 65 185 9.6 21.7 0.00 0.29 0.29 76 1014.1
20260507101007 65 194 11.3 18.2 0.00 0.29 0.29 76 1014.4
20260507100507 65 179 8.7 17.4 0.00 0.29 0.29 76 1014.3
20260507100007 65 186 8.7 17.4 0.00 0.29 0.29 76 1014.5
20260507095507 65 194 7.8 13.9 0.00 0.29 0.29 76 1014.4
20260507095021 65 186 6.1 13.9 0.00 0.29 0.29 78 1014.4
20260507094505 65 206 8.7 14.8 0.00 0.29 0.29 79 1014.6
20260507094016 64 164 8.7 15.6 0.00 0.29 0.29 81 1014.5
20260507093509 64 187 7.8 15.6 0.00 0.29 0.29 83 1014.5
20260507093007 64 191 8.7 13.9 0.00 0.29 0.29 85 1014.4
20260507092506 63 193 7.8 13.0 0.00 0.29 0.29 88 1014.3
20260507092007 62 178 8.7 17.4 0.00 0.29 0.29 88 1014.3
20260507090507 60 199 10.4 17.4 0.00 0.29 0.29 83 1014.3
20260507090007 60 186 6.1 17.4 0.00 0.29 0.29 83 1014.2
20260507085505 59 175 8.7 19.1 0.00 0.29 0.29 83 1014.1
20260507085007 60 179 7.8 15.6 0.00 0.29 0.29 83 1014.1
20260507084506 59 167 8.7 14.8 0.00 0.29 0.29 83 1013.9
20260507083510 60 165 5.2 10.4 0.00 0.29 0.29 83 1013.8
20260507083005 59 171 5.2 12.2 0.00 0.29 0.29 83 1013.8
20260507082505 60 173 6.1 13.0 0.00 0.29 0.29 83 1013.8
20260507082007 60 167 7.0 13.0 0.00 0.29 0.29 82 1013.9
20260507081506 60 181 7.8 12.2 0.00 0.29 0.29 82 1013.9
20260507081006 60 169 7.0 13.0 0.00 0.29 0.29 82 1013.9
20260507080507 60 193 5.2 10.4 0.00 0.29 0.29 82 1013.7
20260507080013 60 179 7.8 13.0 0.00 0.29 0.29 82 1013.8
20260507075511 60 173 6.1 12.2 0.00 0.29 0.29 82 1013.7
20260507074505 59 181 4.3 12.2 0.00 0.29 0.29 82 1013.5
20260507074007 59 154 4.3 8.7 0.00 0.29 0.29 82 1013.8
20260507073507 58 173 4.3 12.2 0.00 0.29 0.29 82 1013.9
20260507073007 58 167 6.1 12.2 0.00 0.29 0.29 83 1014.2
20260507072507 58 180 3.5 10.4 0.00 0.29 0.29 83 1014.3
20260507072007 58 175 5.2 10.4 0.00 0.29 0.29 83 1014.5
20260507071506 58 174 6.1 10.4 0.00 0.29 0.29 83 1014.6
20260507070010 58 165 5.2 11.3 0.01 0.29 0.29 83 1014.7
20260507065005 58 162 4.3 8.7 0.01 0.29 0.29 83 1014.7
20260507064507 58 159 5.2 11.3 0.02 0.29 0.29 83 1014.9
20260507064010 58 166 5.2 11.3 0.02 0.29 0.29 83 1014.9
20260507063510 58 173 5.2 8.7 0.02 0.29 0.29 83 1014.9
20260507063007 58 181 4.3 7.8 0.02 0.29 0.29 83 1014.9
20260507062507 58 188 1.7 5.2 0.02 0.29 0.29 83 1014.6
20260507060005 58 175 0.0 0.9 0.02 0.28 0.28 83 1015.3
20260507055516 58 173 0.0 2.6 0.03 0.28 0.28 83 1015.5
20260507055011 58 179 0.9 2.6 0.04 0.28 0.28 83 1015.6
20260507054516 58 174 0.9 2.6 0.04 0.28 0.28 83 1015.6
20260507054007 58 179 0.9 2.6 0.04 0.28 0.28 83 1015.7
20260507053508 58 170 0.9 2.6 0.05 0.28 0.28 83 1015.6
20260507053005 58 192 1.7 2.6 0.05 0.28 0.28 83 1015.7
20260507052507 58 175 0.9 1.7 0.05 0.28 0.28 83 1015.5
20260507051504 58 178 0.0 1.7 0.05 0.28 0.28 83 1015.3
20260507050507 58 174 0.9 2.6 0.04 0.27 0.27 83 1015.4
20260507044507 58 185 1.7 4.3 0.02 0.24 0.24 84 1015.5
20260507044008 58 203 1.7 2.6 0.02 0.24 0.24 84 1015.6
20260507043507 58 203 0.9 2.6 0.02 0.23 0.23 84 1015.4
20260507043007 58 131 0.0 0.9 0.02 0.23 0.23 84 1014.8
20260507042506 58 148 0.9 2.6 0.03 0.23 0.23 84 1014.5
20260507042007 58 161 1.7 2.6 0.05 0.23 0.23 85 1014.4
20260507041506 58 151 0.9 2.6 0.05 0.23 0.23 85 1014.4
20260507041006 59 206 0.0 0.0 0.06 0.23 0.23 85 1014.5
20260507040005 59 206 0.0 0.0 0.08 0.23 0.23 85 1014.6
20260507035507 58 206 0.0 0.0 0.09 0.23 0.23 85 1014.8
20260507034505 58 206 0.0 1.7 0.09 0.22 0.22 86 1015.0
20260507034007 58 206 0.9 1.7 0.09 0.22 0.22 86 1015.0
20260507033506 58 182 0.9 1.7 0.09 0.21 0.21 86 1014.7
20260507033011 58 217 0.9 2.6 0.09 0.21 0.21 86 1015.1
20260507032008 58 202 1.7 4.3 0.07 0.18 0.18 86 1015.1
20260507031505 58 193 1.7 5.2 0.07 0.18 0.18 86 1015.1
20260507031006 58 195 1.7 6.1 0.06 0.17 0.17 86 1015.1
20260507030008 58 200 3.5 6.1 0.04 0.15 0.15 86 1015.2
20260507025006 58 212 0.9 2.6 0.03 0.13 0.13 86 1014.8
20260507024507 58 212 0.9 2.6 0.03 0.13 0.13 86 1014.7
20260507024011 58 217 1.7 2.6 0.03 0.13 0.13 87 1014.6
20260507023507 58 204 1.7 2.6 0.03 0.12 0.12 87 1014.4
20260507023007 58 211 0.9 2.6 0.04 0.12 0.12 87 1014.0
20260507022506 58 173 0.0 1.7 0.05 0.12 0.12 87 1013.7
20260507022006 59 173 0.0 0.0 0.05 0.11 0.11 87 1013.5
20260507021011 59 173 0.0 0.9 0.07 0.11 0.11 87 1013.3
20260507020507 59 71 0.0 0.9 0.08 0.11 0.11 87 1013.3
20260507020015 59 40 0.0 1.7 0.09 0.11 0.11 87 1013.3
20260507015508 59 34 1.7 2.6 0.09 0.11 0.11 87 1013.3
20260507014508 59 133 0.0 1.7 0.09 0.10 0.10 87 1013.7
20260507014007 59 147 0.0 2.6 0.08 0.09 0.09 87 1013.8
20260507013510 59 179 0.9 6.1 0.07 0.09 0.09 87 1014.1
20260507013006 59 207 2.6 6.1 0.07 0.08 0.08 87 1014.3
20260507012006 59 206 2.6 6.1 0.06 0.06 0.06 87 1014.4
20260507011506 59 196 2.6 6.1 0.05 0.06 0.06 88 1014.4
20260507010006 59 192 0.0 0.9 0.02 0.02 0.02 88 1014.0
20260507005511 59 194 0.0 2.6 0.01 0.02 0.02 88 1014.0
20260507005007 59 197 0.9 2.6 0.01 0.02 0.02 88 1014.0
20260507004506 59 193 0.9 2.6 0.02 0.02 0.02 88 1014.0
20260507004007 59 206 0.9 4.3 0.02 0.02 0.02 88 1014.0
20260507003507 59 211 1.7 7.0 0.02 0.02 0.02 88 1014.1
20260507002507 59 195 4.3 10.4 0.01 0.01 0.01 88 1014.1
20260507002006 59 205 1.7 7.0 0.01 0.01 0.01 88 1014.0
20260507001507 59 201 1.7 4.3 0.01 0.01 0.01 88 1014.0
20260507001005 59 203 0.9 4.3 0.01 0.01 0.01 88 1014.0
20260507000511 59 200 0.9 4.3 0.01 0.01 0.01 88 1013.9
20260507000007 59 233 0.9 2.6 0.01 0.01 0.01 88 1013.8
20260506235505 59 203 1.7 2.6 0.01 0.01 0.01 88 1013.6
20260506235007 59 195 0.9 4.3 0.01 0.01 0.01 88 1013.5
20260506234507 59 190 0.9 2.6 0.00 0.00 0.00 88 1013.6
20260506234007 59 209 1.7 2.6 0.00 0.00 0.00 88 1013.4
20260506233507 59 176 0.9 1.7 0.00 0.00 0.00 88 1013.2
20260506233007 59 195 0.9 2.6 0.00 0.00 0.00 88 1013.4
20260506232505 59 168 1.7 4.3 0.00 0.00 0.00 88 1013.5
20260506232006 59 181 1.7 4.3 0.00 0.00 0.00 88 1013.6
20260506231506 60 201 1.7 4.3 0.00 0.00 0.00 88 1013.7
20260506231007 59 211 1.7 2.6 0.00 0.00 0.00 88 1013.7
20260506230507 60 175 0.9 6.1 0.00 0.00 0.00 88 1013.7
20260506225506 60 189 0.9 2.6 0.00 0.00 0.00 88 1013.8
20260506225005 60 179 1.7 4.3 0.00 0.00 0.00 88 1013.9
20260506224007 60 183 1.7 4.3 0.00 0.00 0.00 88 1014.0
20260506223507 60 212 1.7 4.3 0.00 0.00 0.00 88 1014.0
20260506223006 60 212 0.9 4.3 0.00 0.00 0.00 88 1014.0
20260506222506 60 192 3.5 8.7 0.00 0.00 0.00 88 1014.2
20260506222008 60 200 3.5 8.7 0.00 0.00 0.00 88 1014.2
20260506221505 60 203 6.1 8.7 0.00 0.00 0.00 88 1014.1
20260506221007 60 196 7.0 11.3 0.00 0.00 0.00 88 1014.0
20260506220506 60 209 5.2 10.4 0.00 0.00 0.00 88 1014.0
20260506220006 60 189 3.5 10.4 0.00 0.00 0.00 88 1013.9
20260506215007 60 204 5.2 10.4 0.00 0.00 0.00 88 1014.1
20260506214505 60 207 6.1 13.0 0.00 0.00 0.00 88 1014.1